A/2019 U5

Japanese version
Home page
Updated on March 8, 2020

---------------------------------------------------------------------

* Profile

Discovery Date October 22, 2019
Magnitude 21.16 mag
Discoverer Pan-STARRS 1 telescope (Haleakala)

* Orbital Elements

Epoch 2023 Apr. 6.0 TT = JDT 2460040.5
T 2023 Mar. 29.43159 TT                                 Rudenko
q   3.6230173            (2000.0)            P               Q
z  -0.0005457      Peri.  181.49100     -0.99908128     +0.00764609
 +/-0.0000841      Node     2.63588     -0.02317241     +0.73133025
e   1.0019772      Incl.  113.51984     -0.03605052     -0.68198064
H   10.0
From 45 observations 2019 Oct. 11-2020 Feb. 27, mean residual 0".2.

* Finding Charts

* Magnitudes Graph

        H = 10.0  G = 0.15

---------------------------------------------------------------------

The orbital elements are published on M.P.E.C. 2020-E26.
The charts are made with StellaNavigator Ver.10 (AstroArts).
The magnitudes graphs are made with Comet for Windows.

---------------------------------------------------------------------

Copyright(C) Seiichi Yoshida (comet@aerith.net). All rights reserved.